Time,TemperatureF,DewpointF,PressureIn,WindDirection,WindDirectionDegrees,WindSpeedMPH,WindSpeedGustMPH,Humidity,HourlyPrecipIn,Conditions,Clouds,dailyrainin,SoftwareType,DateUTC
2013-08-24 00:10:00,61.3,60.0,30.11,WSW,253,0.0,1.0,94,0.00,,,0.00,weatherlink.com 1.10,2013-08-24 04:10:00,
2013-08-24 00:25:00,61.0,60.0,30.12,WSW,253,0.0,2.0,95,0.00,,,0.00,weatherlink.com 1.10,2013-08-24 04:25:00,
2013-08-24 00:40:00,60.6,59.0,30.12,WSW,253,0.0,0.0,95,0.00,,,0.00,weatherlink.com 1.10,2013-08-24 04:40:00,
2013-08-24 00:55:00,60.3,59.0,30.13,WSW,253,0.0,0.0,95,0.00,,,0.00,weatherlink.com 1.10,2013-08-24 04:55:00,
2013-08-24 01:10:00,59.9,59.0,30.13,WSW,253,0.0,0.0,95,0.00,,,0.00,weatherlink.com 1.10,2013-08-24 05:10:00,
2013-08-24 01:25:00,59.6,59.0,30.13,WSW,253,0.0,1.0,96,0.00,,,0.00,weatherlink.com 1.10,2013-08-24 05:25:00,
2013-08-24 01:40:00,59.2,58.0,30.13,WSW,253,0.0,0.0,96,0.00,,,0.00,weatherlink.com 1.10,2013-08-24 05:40:00,
2013-08-24 01:55:00,58.8,58.0,30.13,WSW,253,0.0,0.0,96,0.00,,,0.00,weatherlink.com 1.10,2013-08-24 05:55:00,
2013-08-24 02:10:00,58.7,58.0,30.13,WSW,253,0.0,0.0,97,0.00,,,0.00,weatherlink.com 1.10,2013-08-24 06:10:00,
2013-08-24 02:25:00,58.8,58.0,30.13,WSW,253,0.0,0.0,97,0.00,,,0.00,weatherlink.com 1.10,2013-08-24 06:25:00,
2013-08-24 02:40:00,58.6,58.0,30.14,WSW,253,0.0,0.0,97,0.00,,,0.00,weatherlink.com 1.10,2013-08-24 06:40:00,
2013-08-24 02:55:00,58.4,57.0,30.15,ENE,77,1.0,4.0,96,0.00,,,0.00,weatherlink.com 1.10,2013-08-24 06:55:00,
2013-08-24 03:10:00,58.2,57.0,30.16,NW,304,0.0,2.0,97,0.00,,,0.00,weatherlink.com 1.10,2013-08-24 07:10:00,
2013-08-24 03:25:00,59.0,59.0,30.16,NW,304,0.0,1.0,98,0.00,,,0.00,weatherlink.com 1.10,2013-08-24 07:25:00,
2013-08-24 03:40:00,59.1,58.0,30.16,NW,304,0.0,1.0,97,0.00,,,0.00,weatherlink.com 1.10,2013-08-24 07:40:00,
2013-08-24 03:56:00,59.0,58.0,30.17,NW,304,0.0,0.0,97,0.00,,,0.00,weatherlink.com 1.10,2013-08-24 07:56:00,
2013-08-24 04:11:00,59.1,59.0,30.17,NW,304,0.0,0.0,98,0.00,,,0.00,weatherlink.com 1.10,2013-08-24 08:11:00,
2013-08-24 04:26:00,59.0,58.0,30.17,NW,304,0.0,0.0,97,0.00,,,0.00,weatherlink.com 1.10,2013-08-24 08:26:00,
2013-08-24 04:41:00,58.6,58.0,30.18,NW,304,0.0,0.0,97,0.00,,,0.00,weatherlink.com 1.10,2013-08-24 08:41:00,
2013-08-24 04:56:00,58.6,58.0,30.18,NW,304,0.0,0.0,97,0.00,,,0.00,weatherlink.com 1.10,2013-08-24 08:56:00,
2013-08-24 05:11:00,58.6,58.0,30.18,NW,304,0.0,0.0,98,0.00,,,0.00,weatherlink.com 1.10,2013-08-24 09:11:00,
2013-08-24 05:26:00,57.9,57.0,30.19,NW,304,0.0,0.0,97,0.00,,,0.00,weatherlink.com 1.10,2013-08-24 09:26:00,
2013-08-24 05:41:00,57.7,57.0,30.19,NW,304,0.0,2.0,97,0.00,,,0.00,weatherlink.com 1.10,2013-08-24 09:41:00,
2013-08-24 05:56:00,57.7,57.0,30.19,NW,304,0.0,2.0,98,0.00,,,0.00,weatherlink.com 1.10,2013-08-24 09:56:00,
2013-08-24 06:11:00,57.5,57.0,30.20,NW,304,0.0,0.0,97,0.00,,,0.00,weatherlink.com 1.10,2013-08-24 10:11:00,
2013-08-24 06:26:00,57.3,57.0,30.21,NW,304,0.0,0.0,97,0.00,,,0.00,weatherlink.com 1.10,2013-08-24 10:26:00,
2013-08-24 06:41:00,57.2,57.0,30.21,NW,304,0.0,0.0,98,0.00,,,0.00,weatherlink.com 1.10,2013-08-24 10:41:00,
2013-08-24 06:56:00,57.2,57.0,30.22,NW,304,0.0,1.0,98,0.00,,,0.00,weatherlink.com 1.10,2013-08-24 10:56:00,
2013-08-24 07:11:00,56.7,56.0,30.23,NW,304,0.0,0.0,97,0.00,,,0.00,weatherlink.com 1.10,2013-08-24 11:11:00,
2013-08-24 07:26:00,56.6,56.0,30.23,NW,304,0.0,0.0,98,0.00,,,0.00,weatherlink.com 1.10,2013-08-24 11:26:00,
2013-08-24 07:41:00,57.5,57.0,30.24,NW,304,0.0,0.0,98,0.00,,,0.00,weatherlink.com 1.10,2013-08-24 11:41:00,
2013-08-24 07:56:00,57.9,57.0,30.24,NW,304,0.0,0.0,98,0.01,,,0.01,weatherlink.com 1.10,2013-08-24 11:56:00,
2013-08-24 08:11:00,58.6,58.0,30.24,NW,304,0.0,0.0,98,0.01,,,0.01,weatherlink.com 1.10,2013-08-24 12:11:00,
2013-08-24 08:26:00,59.9,60.0,30.25,NW,304,0.0,2.0,99,0.01,,,0.01,weatherlink.com 1.10,2013-08-24 12:26:00,
2013-08-24 08:41:00,61.1,61.0,30.25,NE,44,0.0,3.0,99,0.01,,,0.01,weatherlink.com 1.10,2013-08-24 12:41:00,
2013-08-24 08:56:00,62.3,62.0,30.26,NE,54,0.0,2.0,99,0.00,,,0.01,weatherlink.com 1.10,2013-08-24 12:56:00,
2013-08-24 09:11:00,62.9,62.0,30.26,NE,55,1.0,2.0,98,0.00,,,0.01,weatherlink.com 1.10,2013-08-24 13:11:00,
2013-08-24 09:26:00,63.5,62.0,30.27,NE,39,0.0,4.0,96,0.00,,,0.01,weatherlink.com 1.10,2013-08-24 13:26:00,
2013-08-24 09:41:00,64.2,62.0,30.27,ENE,72,0.0,2.0,93,0.00,,,0.01,weatherlink.com 1.10,2013-08-24 13:41:00,
2013-08-24 09:56:00,65.2,62.0,30.28,ENE,70,1.0,4.0,90,0.00,,,0.01,weatherlink.com 1.10,2013-08-24 13:56:00,
2013-08-24 10:11:00,66.4,63.0,30.28,ENE,77,0.0,3.0,87,0.00,,,0.01,weatherlink.com 1.10,2013-08-24 14:11:00,
2013-08-24 10:26:00,67.8,62.0,30.28,ENE,65,1.0,3.0,82,0.00,,,0.01,weatherlink.com 1.10,2013-08-24 14:26:00,
2013-08-24 10:41:00,68.8,63.0,30.28,NE,50,3.0,4.0,81,0.00,,,0.01,weatherlink.com 1.10,2013-08-24 14:41:00,
2013-08-24 10:57:00,69.5,64.0,30.29,NW,314,1.0,4.0,82,0.00,,,0.01,weatherlink.com 1.10,2013-08-24 14:57:00,
2013-08-24 11:12:00,70.2,63.0,30.29,North,355,0.0,4.0,79,0.00,,,0.01,weatherlink.com 1.10,2013-08-24 15:12:00,
2013-08-24 11:27:00,71.3,62.0,30.29,NE,55,1.0,3.0,72,0.00,,,0.01,weatherlink.com 1.10,2013-08-24 15:27:00,
2013-08-24 11:42:00,72.0,63.0,30.28,South,190,0.0,3.0,73,0.00,,,0.01,weatherlink.com 1.10,2013-08-24 15:42:00,
2013-08-24 11:57:00,72.7,64.0,30.28,ENE,65,0.0,2.0,75,0.00,,,0.01,weatherlink.com 1.10,2013-08-24 15:57:00,
2013-08-24 12:12:00,73.5,63.0,30.28,NNE,29,0.0,4.0,69,0.00,,,0.01,weatherlink.com 1.10,2013-08-24 16:12:00,
2013-08-24 12:27:00,74.0,63.0,30.28,East,80,0.0,3.0,69,0.00,,,0.01,weatherlink.com 1.10,2013-08-24 16:27:00,
2013-08-24 12:42:00,73.9,63.0,30.28,ENE,67,0.0,3.0,69,0.00,,,0.01,weatherlink.com 1.10,2013-08-24 16:42:00,
2013-08-24 12:57:00,74.3,63.0,30.27,ENE,61,0.0,3.0,67,0.00,,,0.01,weatherlink.com 1.10,2013-08-24 16:57:00,
2013-08-24 13:12:00,74.7,63.0,30.27,NNE,31,2.0,4.0,66,0.00,,,0.01,weatherlink.com 1.10,2013-08-24 17:12:00,
2013-08-24 13:27:00,75.9,62.0,30.27,ENE,67,2.0,3.0,63,0.00,,,0.01,weatherlink.com 1.10,2013-08-24 17:27:00,
2013-08-24 13:42:00,76.4,61.0,30.27,North,349,2.0,4.0,59,0.00,,,0.01,weatherlink.com 1.10,2013-08-24 17:42:00,
2013-08-24 13:57:00,75.8,62.0,30.27,East,93,0.0,2.0,62,0.00,,,0.01,weatherlink.com 1.10,2013-08-24 17:57:00,
2013-08-24 14:12:00,76.7,64.0,30.27,NNE,13,0.0,2.0,64,0.00,,,0.01,weatherlink.com 1.10,2013-08-24 18:12:00,
2013-08-24 14:27:00,77.4,65.0,30.27,South,169,1.0,3.0,65,0.00,,,0.01,weatherlink.com 1.10,2013-08-24 18:27:00,
2013-08-24 14:42:00,78.0,61.0,30.26,SSW,213,4.0,4.0,57,0.00,,,0.01,weatherlink.com 1.10,2013-08-24 18:42:00,
2013-08-24 14:57:00,78.8,63.0,30.26,East,98,0.0,2.0,59,0.00,,,0.01,weatherlink.com 1.10,2013-08-24 18:57:00,
2013-08-24 15:12:00,79.6,63.0,30.26,East,80,1.0,3.0,57,0.00,,,0.01,weatherlink.com 1.10,2013-08-24 19:12:00,
2013-08-24 15:27:00,78.9,61.0,30.26,ENE,57,0.0,3.0,55,0.00,,,0.01,weatherlink.com 1.10,2013-08-24 19:27:00,
2013-08-24 15:42:00,79.2,60.0,30.26,East,101,0.0,3.0,52,0.00,,,0.01,weatherlink.com 1.10,2013-08-24 19:42:00,
2013-08-24 15:57:00,79.1,61.0,30.26,ESE,106,2.0,3.0,54,0.00,,,0.01,weatherlink.com 1.10,2013-08-24 19:57:00,
2013-08-24 16:12:00,79.2,58.0,30.26,East,98,0.0,2.0,49,0.00,,,0.01,weatherlink.com 1.10,2013-08-24 20:12:00,
2013-08-24 16:27:00,78.6,61.0,30.26,ENE,66,0.0,3.0,55,0.00,,,0.01,weatherlink.com 1.10,2013-08-24 20:27:00,
2013-08-24 16:42:00,78.7,59.0,30.26,ENE,64,1.0,2.0,51,0.00,,,0.01,weatherlink.com 1.10,2013-08-24 20:42:00,
2013-08-24 16:57:00,79.1,61.0,30.25,ENE,64,2.0,2.0,54,0.00,,,0.01,weatherlink.com 1.10,2013-08-24 20:57:00,
2013-08-24 17:12:00,78.5,59.0,30.25,NE,34,1.0,3.0,51,0.00,,,0.01,weatherlink.com 1.10,2013-08-24 21:12:00,
2013-08-24 17:27:00,77.9,58.0,30.25,NNE,32,1.0,2.0,51,0.00,,,0.01,weatherlink.com 1.10,2013-08-24 21:27:00,
2013-08-24 17:42:00,78.2,57.0,30.25,SSW,213,1.0,3.0,49,0.00,,,0.01,weatherlink.com 1.10,2013-08-24 21:42:00,
2013-08-24 17:57:00,77.2,58.0,30.25,SSW,213,0.0,1.0,51,0.00,,,0.01,weatherlink.com 1.10,2013-08-24 21:57:00,
2013-08-24 18:12:00,75.2,56.0,30.25,SSW,213,0.0,2.0,52,0.00,,,0.01,weatherlink.com 1.10,2013-08-24 22:12:00,
2013-08-24 18:27:00,73.7,57.0,30.25,SSW,213,0.0,1.0,56,0.00,,,0.01,weatherlink.com 1.10,2013-08-24 22:27:00,
2013-08-24 18:42:00,72.7,58.0,30.25,SSW,213,0.0,0.0,60,0.00,,,0.01,weatherlink.com 1.10,2013-08-24 22:42:00,
2013-08-24 18:57:00,71.9,56.0,30.25,SSW,213,0.0,1.0,58,0.00,,,0.01,weatherlink.com 1.10,2013-08-24 22:57:00,
2013-08-24 19:12:00,71.1,58.0,30.25,SSW,213,0.0,0.0,63,0.00,,,0.01,weatherlink.com 1.10,2013-08-24 23:12:00,
2013-08-24 19:27:00,70.5,59.0,30.25,SSW,213,0.0,0.0,66,0.00,,,0.01,weatherlink.com 1.10,2013-08-24 23:27:00,
2013-08-24 19:42:00,69.9,58.0,30.26,SSW,213,0.0,1.0,67,0.00,,,0.01,weatherlink.com 1.10,2013-08-24 23:42:00,
2013-08-24 19:57:00,69.0,58.0,30.26,SSW,213,0.0,0.0,68,0.00,,,0.01,weatherlink.com 1.10,2013-08-24 23:57:00,
2013-08-24 20:12:00,68.3,58.0,30.26,SSW,213,0.0,0.0,70,0.00,,,0.01,weatherlink.com 1.10,2013-08-25 00:12:00,
2013-08-24 20:27:00,67.5,60.0,30.27,SSW,213,0.0,0.0,77,0.00,,,0.01,weatherlink.com 1.10,2013-08-25 00:27:00,
2013-08-24 20:42:00,66.6,60.0,30.28,SSW,213,0.0,2.0,78,0.00,,,0.01,weatherlink.com 1.10,2013-08-25 00:42:00,
2013-08-24 20:57:00,66.4,60.0,30.29,SSW,213,1.0,1.0,79,0.00,,,0.01,weatherlink.com 1.10,2013-08-25 00:57:00,
2013-08-24 21:12:00,65.8,60.0,30.29,SSW,213,0.0,1.0,80,0.00,,,0.01,weatherlink.com 1.10,2013-08-25 01:12:00,
2013-08-24 21:27:00,65.5,60.0,30.30,SSW,213,0.0,2.0,81,0.00,,,0.01,weatherlink.com 1.10,2013-08-25 01:27:00,
2013-08-24 21:42:00,65.6,59.0,30.30,SSW,213,0.0,1.0,79,0.00,,,0.01,weatherlink.com 1.10,2013-08-25 01:42:00,
2013-08-24 21:57:00,65.3,59.0,30.30,SSW,213,0.0,0.0,81,0.00,,,0.01,weatherlink.com 1.10,2013-08-25 01:57:00,
2013-08-24 22:12:00,64.8,58.0,30.30,SSW,213,0.0,0.0,79,0.00,,,0.01,weatherlink.com 1.10,2013-08-25 02:12:00,
2013-08-24 22:27:00,64.5,59.0,30.30,SSW,213,0.0,0.0,81,0.00,,,0.01,weatherlink.com 1.10,2013-08-25 02:27:00,
2013-08-24 22:42:00,64.1,59.0,30.30,SSW,213,0.0,0.0,84,0.00,,,0.01,weatherlink.com 1.10,2013-08-25 02:42:00,
2013-08-24 22:57:00,63.9,59.0,30.30,SSW,213,0.0,2.0,85,0.00,,,0.01,weatherlink.com 1.10,2013-08-25 02:57:00,
2013-08-24 23:12:00,63.2,59.0,30.31,SSW,213,0.0,1.0,87,0.00,,,0.01,weatherlink.com 1.10,2013-08-25 03:12:00,
2013-08-24 23:27:00,62.9,59.0,30.31,SSW,213,0.0,1.0,87,0.00,,,0.01,weatherlink.com 1.10,2013-08-25 03:27:00,
2013-08-24 23:42:00,62.4,59.0,30.32,SSW,213,0.0,2.0,89,0.00,,,0.01,weatherlink.com 1.10,2013-08-25 03:42:00,
2013-08-24 23:57:00,62.7,59.0,30.32,SSW,213,0.0,1.0,86,0.00,,,0.01,weatherlink.com 1.10,2013-08-25 03:57:00,